Weather History for Auburn, AL

Change the Weather History Date:

Wednesday, March 6, 2013

  Actual Average Record
Temperature  
Mean Temperature 41 °F -  
Max Temperature 48 °F - 84 °F (1974)
Min Temperature 34 °F - 17 °F (1960)
Degree Days  
Heating Degree Days 24    
Month to date heating degree days 132  
Since 1 July heating degree days 1616  
Cooling Degree Days 0    
Month to date cooling degree days 0  
Year to date cooling degree days 11  
Moisture  
Dew Point 24 °F    
Average Humidity 54    
Maximum Humidity 75    
Minimum Humidity 40    
Precipitation  
Precipitation 0.00 in - 4.80 in (1983)
Month to date precipitation 0.05  
Year to date precipitation 13.43  
Sea Level Pressure  
Sea Level Pressure 30.11 in    
Wind  
Wind Speed 13 mph (NW)    
Max Wind Speed 23 mph    
Max Gust Speed 30 mph    
Visibility 10 miles    
Events      
T = Trace of Precipitation, MM = Missing Value Source: NWS Daily Summary

Daily Weather History Graph

Daily Weather History Graph

Search for Another Location

Airport:

Trip Planner

Search our weather history database for the weather conditions in past years. The results will help you decide how hot, cold, wet, or windy it might be!

Date:

Astronomy

Mar. 06, 2013 Rise Set
Actual Time 6:03 AM CST 5:43 PM CST
Civil Twilight 5:38 AM CST 6:07 PM CST
Nautical Twilight 5:10 AM CST 6:36 PM CST
Astronomical Twilight 4:41 AM CST 7:04 PM CST
Moon 1:57 AM CST (3/6) 12:37 PM CST (3/6)
Length of Visible Light 12h 29m
Length of Day
11h 40m
Waning Crescent, 29% of the Moon is Illuminated
Mar 6
Waning Crescent
Mar 11
New
Mar 19
First Quarter
Mar 27
Full
Apr 2
Last Quarter

Hourly Weather History & Observations

Time (CST) Temp. Windchill Dew Point Humidity Pressure Visibility Wind Dir Wind Speed Gust Speed Precip Events Conditions
12:15 AM 37.4 °F 30.8 °F 30.2 °F 75% 29.99 in 10.0 mi West 9.2 mph - N/A   Clear
12:35 AM 37.4 °F 30.8 °F 30.2 °F 75% 29.99 in 10.0 mi West 9.2 mph - N/A   Clear
12:55 AM 37.4 °F 29.8 °F 30.2 °F 75% 30.00 in 10.0 mi West 11.5 mph 17.3 mph N/A   Clear
1:15 AM 37.4 °F 30.3 °F 28.4 °F 70% 30.00 in 10.0 mi West 10.4 mph 21.9 mph N/A   Clear
1:35 AM 37.4 °F 30.3 °F 26.6 °F 65% 29.99 in 10.0 mi WNW 10.4 mph 18.4 mph N/A   Clear
1:55 AM 39.2 °F 31.6 °F 24.8 °F 56% 29.99 in 10.0 mi WNW 12.7 mph 21.9 mph N/A   Clear
2:15 AM 37.4 °F 28.5 °F 24.8 °F 60% 29.99 in 10.0 mi WNW 15.0 mph 20.7 mph N/A   Clear
2:35 AM 37.4 °F 30.3 °F 23.0 °F 56% 29.99 in 10.0 mi WNW 10.4 mph - N/A   Clear
2:55 AM 37.4 °F 28.9 °F 23.0 °F 56% 29.99 in 10.0 mi NW 13.8 mph 24.2 mph N/A   Clear
3:15 AM 37.4 °F 27.5 °F 21.2 °F 52% 30.00 in 10.0 mi NW 18.4 mph 26.5 mph N/A   Clear
3:35 AM 37.4 °F 28.5 °F 21.2 °F 52% 30.01 in 10.0 mi NW 15.0 mph 21.9 mph N/A   Clear
3:55 AM 35.6 °F 26.6 °F 21.2 °F 56% 30.02 in 10.0 mi NW 13.8 mph 19.6 mph N/A   Partly Cloudy
4:15 AM 35.6 °F 25.2 °F 19.4 °F 52% 30.03 in 10.0 mi NW 18.4 mph 23.0 mph N/A   Clear
4:35 AM 35.6 °F 26.2 °F 19.4 °F 52% 30.04 in 10.0 mi NW 15.0 mph 23.0 mph N/A   Clear
4:55 AM 33.8 °F 24.3 °F 19.4 °F 56% 30.05 in 10.0 mi NW 13.8 mph 19.6 mph N/A   Clear
5:15 AM 33.8 °F 23.5 °F 19.4 °F 56% 30.05 in 10.0 mi NW 16.1 mph 23.0 mph N/A   Clear
5:35 AM 33.8 °F 24.3 °F 19.4 °F 56% 30.06 in 10.0 mi NW 13.8 mph 20.7 mph N/A   Clear
5:55 AM 33.8 °F 22.8 °F 19.4 °F 56% 30.06 in 10.0 mi WNW 18.4 mph 24.2 mph N/A   Clear
6:15 AM 33.8 °F 25.3 °F 19.4 °F 56% 30.07 in 10.0 mi NW 11.5 mph - N/A   Clear
6:35 AM 33.8 °F 24.8 °F 19.4 °F 56% 30.07 in 10.0 mi WNW 12.7 mph 20.7 mph N/A   Clear
6:55 AM 33.8 °F 25.8 °F 19.4 °F 56% 30.09 in 10.0 mi NW 10.4 mph 16.1 mph N/A   Clear
7:15 AM 33.8 °F 24.3 °F 19.4 °F 56% 30.10 in 10.0 mi WNW 13.8 mph 20.7 mph N/A   Clear
7:35 AM 33.8 °F 23.9 °F 19.4 °F 56% 30.12 in 10.0 mi NW 15.0 mph 20.7 mph N/A   Mostly Cloudy
7:55 AM 35.6 °F 25.2 °F 21.2 °F 56% 30.12 in 10.0 mi NW 18.4 mph 25.3 mph N/A   Overcast
8:15 AM 37.4 °F 27.8 °F 21.2 °F 52% 30.12 in 10.0 mi WNW 17.3 mph 25.3 mph N/A   Mostly Cloudy
8:35 AM 37.4 °F 27.5 °F 21.2 °F 52% 30.13 in 10.0 mi NW 18.4 mph 27.6 mph N/A   Mostly Cloudy
8:55 AM 39.2 °F 29.6 °F 21.2 °F 49% 30.14 in 10.0 mi NW 19.6 mph 29.9 mph N/A   Mostly Cloudy
9:15 AM 39.2 °F 29.0 °F 21.2 °F 49% 30.14 in 10.0 mi NW 21.9 mph 29.9 mph N/A   Mostly Cloudy
9:35 AM 39.2 °F 29.6 °F 19.4 °F 45% 30.15 in 10.0 mi NW 19.6 mph 29.9 mph N/A   Mostly Cloudy
9:55 AM 41.0 °F 31.1 °F 21.2 °F 45% 30.15 in 10.0 mi NNW 23.0 mph 28.8 mph N/A   Mostly Cloudy
10:15 AM 41.0 °F 31.9 °F 21.2 °F 45% 30.16 in 10.0 mi NNW 19.6 mph 26.5 mph N/A   Mostly Cloudy
10:35 AM 42.8 °F 34.5 °F 23.0 °F 46% 30.14 in 10.0 mi West 18.4 mph 23.0 mph N/A   Scattered Clouds
10:55 AM 42.8 °F 34.8 °F 23.0 °F 46% 30.14 in 10.0 mi NNW 17.3 mph 26.5 mph N/A   Partly Cloudy
11:15 AM 42.8 °F 34.8 °F 23.0 °F 46% 30.14 in 10.0 mi WNW 17.3 mph 27.6 mph N/A   Scattered Clouds
11:35 AM 42.8 °F 35.8 °F 24.8 °F 49% 30.13 in 10.0 mi NW 13.8 mph 26.5 mph N/A   Partly Cloudy
11:55 AM 44.6 °F 37.2 °F 24.8 °F 46% 30.13 in 10.0 mi NW 17.3 mph 23.0 mph N/A   Clear
12:15 PM 44.6 °F 37.8 °F 24.8 °F 46% 30.13 in 10.0 mi NW 15.0 mph 24.2 mph N/A   Clear
12:35 PM 44.6 °F 36.9 °F 24.8 °F 46% 30.13 in 10.0 mi NW 18.4 mph 26.5 mph N/A   Clear
12:55 PM 46.4 °F 39.2 °F 24.8 °F 43% 30.13 in 10.0 mi NNW 18.4 mph 24.2 mph N/A   Clear
1:15 PM 46.4 °F 40.1 °F 23.0 °F 40% 30.12 in 10.0 mi NNW 15.0 mph 28.8 mph N/A   Partly Cloudy
1:35 PM 46.4 °F 38.7 °F 26.6 °F 46% 30.12 in 10.0 mi NW 20.7 mph 27.6 mph N/A   Scattered Clouds
1:55 PM 46.4 °F 40.1 °F 24.8 °F 43% 30.12 in 10.0 mi NW 15.0 mph 21.9 mph N/A   Partly Cloudy
2:15 PM 46.4 °F 39.5 °F 24.8 °F 43% 30.13 in 10.0 mi NW 17.3 mph 25.3 mph N/A   Scattered Clouds
2:35 PM 48.2 °F - 26.6 °F 43% 30.13 in 10.0 mi NW 18.4 mph 25.3 mph N/A   Partly Cloudy
2:55 PM 46.4 °F 40.1 °F 24.8 °F 43% 30.14 in 10.0 mi NNW 15.0 mph 24.2 mph N/A   Clear
3:15 PM 46.4 °F 40.1 °F 24.8 °F 43% 30.14 in 10.0 mi NNW 15.0 mph 25.3 mph N/A   Clear
3:35 PM 46.4 °F 40.1 °F 24.8 °F 43% 30.14 in 10.0 mi NW 15.0 mph 21.9 mph N/A   Partly Cloudy
3:55 PM 46.4 °F 39.5 °F 26.6 °F 46% 30.14 in 10.0 mi NW 17.3 mph 23.0 mph N/A   Clear
4:15 PM 46.4 °F 40.7 °F 26.6 °F 46% 30.14 in 10.0 mi NW 12.7 mph 19.6 mph N/A   Clear
4:35 PM 44.6 °F 38.8 °F 24.8 °F 46% 30.14 in 10.0 mi NW 11.5 mph 21.9 mph N/A   Clear
4:55 PM 44.6 °F 37.4 °F 24.8 °F 46% 30.15 in 10.0 mi NNW 16.1 mph 21.9 mph N/A   Clear
5:15 PM 42.8 °F 35.8 °F 24.8 °F 49% 30.15 in 10.0 mi NNW 13.8 mph 20.7 mph N/A   Clear
5:35 PM 42.8 °F 36.2 °F 24.8 °F 49% 30.16 in 10.0 mi NNW 12.7 mph - N/A   Clear
5:55 PM 42.8 °F 37.0 °F 24.8 °F 49% 30.16 in 10.0 mi NW 10.4 mph - N/A   Clear
6:15 PM 41.0 °F 35.2 °F 24.8 °F 53% 30.16 in 10.0 mi NW 9.2 mph - N/A   Clear
6:35 PM 39.2 °F 33.6 °F 24.8 °F 56% 30.17 in 10.0 mi NW 8.1 mph - N/A   Clear
6:55 PM 39.2 °F 33.6 °F 24.8 °F 56% 30.17 in 10.0 mi NW 8.1 mph - N/A   Clear
7:15 PM 39.2 °F 33.6 °F 24.8 °F 56% 30.17 in 10.0 mi NNW 8.1 mph - N/A   Clear
7:35 PM 39.2 °F 33.6 °F 24.8 °F 56% 30.17 in 10.0 mi NNW 8.1 mph - N/A   Clear
7:55 PM 37.4 °F 32.8 °F 24.8 °F 60% 30.18 in 10.0 mi WNW 5.8 mph - N/A   Clear
8:35 PM 37.4 °F 32.1 °F 24.8 °F 60% 30.19 in 10.0 mi WNW 6.9 mph - N/A   Clear
8:55 PM 37.4 °F 33.8 °F 24.8 °F 60% 30.19 in 10.0 mi NW 4.6 mph - N/A   Clear
9:35 PM 35.6 °F 29.9 °F 24.8 °F 65% 30.18 in 10.0 mi NNW 6.9 mph - N/A   Clear
9:55 PM 35.6 °F 31.7 °F 24.8 °F 65% 30.18 in 10.0 mi NW 4.6 mph - N/A   Clear
10:15 PM 35.6 °F 29.9 °F 24.8 °F 65% 30.18 in 10.0 mi WNW 6.9 mph - N/A   Clear
10:55 PM 33.8 °F 27.0 °F 26.6 °F 75% 30.18 in 10.0 mi NW 8.1 mph - N/A   Clear
11:15 PM 33.8 °F 27.0 °F 24.8 °F 70% 30.18 in 10.0 mi NW 8.1 mph - N/A   Clear
11:35 PM 33.8 °F 26.4 °F 24.8 °F 70% 30.18 in 10.0 mi NW 9.2 mph - N/A   Clear
11:55 PM 33.8 °F 26.4 °F 26.6 °F 75% 30.17 in 10.0 mi NW 9.2 mph - N/A   Clear